AirNav   Phillips 66 Aviation Fuel
 
 1313 users online  

TLT Tuluksak Airport
Tuluksak, Alaska, USA

GOING TO TULUKSAK?


FAA INFORMATION EFFECTIVE 11 OCTOBER 2018

Location

FAA Identifier: TLT
Lat/Long: 61-05-15.8200N / 160-55-24.0700W
61-05.263667N / 160-55.401167W
61.0877278 / -160.9233528
(estimated)
Elevation: 35.8 ft. / 11 m (estimated)
Variation: 19E (1985)
Time zone: UTC -8 (UTC -9 during Standard Time)
Zip code: 99679

Airport Operations

Airport use: Open to the public
Activation date: 10/1959
Control tower: no
ARTCC: ANCHORAGE CENTER
FSS: KENAI FLIGHT SERVICE STATION [907-283-8469]
NOTAMs facility: ENA (NOTAM-D service available)
Attendance: UNATNDD
Wind indicator: lighted
Segmented circle: yes
Lights: ACTVT MIRL RY 15/33 - CTAF.
Beacon: white-green (lighted land airport)
ACTVT ROTG BCN - CTAF.

Airport Communications

CTAF: 122.9

Nearby radio navigation aids

VOR radial/distance  VOR name  Freq  Var
BETr041/31.9BETHEL VORTAC114.1014E

 
NDB name  Hdg/Dist  Freq  Var  ID
OSCARVILLE046/32.925111EOSE --- ... .

Airport Services

Airframe service: NONE
Powerplant service: NONE
Bottled oxygen: NONE
Bulk oxygen: NONE

Runway Information

Runway 15/33

Dimensions: 3300 x 60 ft. / 1006 x 18 m
Surface: gravel/dirt, in good condition
Runway edge lights: medium intensity
RUNWAY 15  RUNWAY 33
Latitude: 61-05.518500N61-05.009000N
Longitude: 160-55.590833W160-55.211667W
Elevation: 35.8 ft.35.8 ft.
Traffic pattern: leftleft
Markings: basic, in good conditionbasic, in good condition
Runway end identifier lights: yesyes
Touchdown point: yes, no lightsyes, no lights
Obstructions: 6 ft. brush, 50 ft. from runway, 100 ft. left and right of centerline, 8:1 slope to clear48 ft. trees, 1250 ft. from runway, 26:1 slope to clear

Airport Ownership and Management from official FAA records

Ownership: Publicly-owned
Owner: ALASKA DOT&PF CENTRAL REGION
PO BOX 196900
ANCHORAGE, AK 99519-6900
Phone 907-269-0747
Manager: LAWERENCE DAVIS
BOX 505
BETHEL, AK 99559
Phone (907) 543-2498

Airport Operational Statistics

Aircraft operations: avg 42/month *
100% air taxi
* for 12-month period ending 31 December 2016

Additional Remarks

RY COND NOT MONITORED; RCMD VISUAL INSPECTION PRIOR TO USE.
WX CAMERAS AVBL ON INTERNET AT HTTP://AVCAMS.FAA.GOV

Instrument Procedures

There are no published instrument procedures at TLT.

Some nearby airports with instrument procedures:

PFAK - Akiak Airport (14 nm SW)
PFKW - Kwethluk Airport (23 nm SW)
PALG - Kalskag Airport (32 nm NE)
PABE - Bethel Airport (32 nm SW)
PAPK - Napaskiak Airport (34 nm SW)
 
Loc | Ops | Rwys | IFR | FBO | Links
Com | Nav | Svcs | Stats | Notes

Crowley
 
Area around TLT (Tuluksak Airport)
 
Road maps at: MapQuest Bing Google
 
Aerial photo
WARNING: Photo may not be current or correct
Aerial photo of TLT (Tuluksak Airport)
Photo by Brian Kellogg

Do you have a better or more recent aerial photo of Tuluksak Airport that you would like to share? If so, please send us your photo.

 
Sectional chart

 
Airport distance calculator
Flying to Tuluksak Airport? Find the distance to fly.

From to TLT

Sunrise and sunset
Times for 18-Oct-2018
 Local
(UTC-8)
 Zulu
(UTC)
Morning civil twilight08:5116:51
Sunrise09:3517:35
Sunset19:2303:23
Evening civil twilight20:0704:07

Current date and time
Zulu (UTC)  18-Oct-2018 20:57:27
Local (UTC-8)  18-Oct-2018 12:57:27
 
METAR
PFKW 
23nm SW 
181956Z AUTO 08004KT 10SM SCT042 BKN050 OVC070 06/04 A2962 RMK AO2 SLP030 T00560044
PABE 
31nm SW 
182053Z 07005KT 10SM -RA BKN042 BKN055 BKN065 07/06 A2963 RMK AO2 RAB49 SLP034 P0000 60000 T00720056 51008
PALG 
32nm NE 
181956Z AUTO 07007KT 10SM SCT075 08/04 A2965 RMK AO2 SLP046 T00780044 $
PANA 
39nm SW 
181956Z AUTO 07004KT 10SM BKN043 OVC060 06/05 A2961 RMK AO2 SLP027 T00560050
PARS 
43nm N 
181956Z AUTO 03004KT 10SM OVC048 06/05 A2966 RMK AO2 SLP047 T00610050 $
PPIT 
45nm W 
181956Z AUTO 05006KT 10SM OVC060 05/05 A2961 RMK AO2 SLP028 T00500050 TSNO
TAF
PABE 
31nm SW 
181733Z 1818/1918 07008KT P6SM VCSH FEW003 BKN060 TEMPO 1818/1820 5SM BR FM191200 03006KT P6SM SCT100
NOTAMs
Click for the latest NOTAMs
NOTAMs are issued by the DoD/FAA and will open in a separate window not controlled by AirNav.

 

 
 

Would you like to see your business listed on this page?

 If your business provides an interesting product or service to pilots, flight crews, aircraft, or users of the Tuluksak Airport, you should consider listing it here.  To start the listing process, click on the button below
 
Add a business
 

Other Pages about Tuluksak Airport

Update a link
 
Copyright © AirNav, LLC. All rights reserved. Privacy Policy  Contact